Location: Kaseke
(18.0171°S, 31.0526°E)
Time: 12:51:22
(UTC+00:00)

PSLV R/B - Pass Details

Date: 14 July 2020
Orbit: 504 x 578 km, 97.8° (Epoch: 07 August)

Event Time Altitude Azimuth Distance (km) Brightness Sun altitude
Rises 02:55:14 0° 8° (N) 2,747 7.7 -21.5°
Reaches altitude 10° 02:57:22 10° 6° (N) 1,848 6.8 -21.0°
Maximum altitude 03:01:22 72° 282° (WNW) 588 3.7 -20.1°
Enters shadow 03:02:29 45° 211° (SSW) 765 4.2 -19.9°
